N275CM KBDN-KAPC

Flight info

Callsign N275CM
Flight time 1h 25m
Altitude 31000
Route DCT LMT DCT SGD DCT
Aircraft SF50/L-VGDW/C

Departure

Time 2026-05-09 00:00
Airport Bend Municipal Airport (KBDN)

Arrival

Time 2026-05-09 01:25
Airport Napa County Airport (KAPC)
Time Latitude Longitude Altitude Speed Heading
2026-05-08 23:46 44.09253 -121.20171 3427 ft 0 kts 156°
2026-05-08 23:56 44.09237 -121.20162 3428 ft 6 kts 158°
2026-05-08 23:56 44.09184 -121.20140 3430 ft 9 kts 175°
2026-05-08 23:56 44.09118 -121.20142 3432 ft 10 kts 182°
2026-05-08 23:57 44.09048 -121.20140 3435 ft 10 kts 179°
2026-05-08 23:57 44.08977 -121.20138 3438 ft 10 kts 180°
2026-05-08 23:57 44.08903 -121.20139 3441 ft 11 kts 180°
2026-05-08 23:57 44.08827 -121.20140 3444 ft 11 kts 180°
2026-05-08 23:58 44.08765 -121.20139 3448 ft 6 kts 162°
2026-05-08 23:58 44.08749 -121.20100 3449 ft 6 kts 92°
2026-05-08 23:58 44.08752 -121.20035 3447 ft 6 kts 56°
2026-05-08 23:58 44.08764 -121.20026 3448 ft 0 kts 359°
2026-05-08 23:59 44.08805 -121.20026 3446 ft 30 kts 358°
2026-05-08 23:59 44.09258 -121.20029 3448 ft 95 kts
2026-05-08 23:59 44.10039 -121.19986 3679 ft 129 kts 355°
2026-05-09 00:00 44.10999 -121.19893 3984 ft 149 kts 356°
2026-05-09 00:00 44.12115 -121.19821 4295 ft 167 kts 355°
2026-05-09 00:00 44.13293 -121.19738 4830 ft 170 kts 358°
2026-05-09 00:00 44.14475 -121.19654 5396 ft 172 kts 358°
2026-05-09 00:01 44.15667 -121.19581 6010 ft 171 kts 356°
2026-05-09 00:01 44.16671 -121.20258 6561 ft 164 kts 301°
2026-05-09 00:01 44.16911 -121.21806 6982 ft 173 kts 275°
2026-05-09 00:01 44.17016 -121.23486 7533 ft 170 kts 276°
2026-05-09 00:02 44.16631 -121.25017 8108 ft 176 kts 231°
2026-05-09 00:02 44.15594 -121.25942 8649 ft 185 kts 200°
2026-05-09 00:02 44.14306 -121.26191 9190 ft 187 kts 192°
2026-05-09 00:02 44.13015 -121.26463 9758 ft 186 kts 197°
2026-05-09 00:03 44.11737 -121.26795 10288 ft 188 kts 196°
2026-05-09 00:03 44.10436 -121.27114 10763 ft 192 kts 195°
2026-05-09 00:03 44.09115 -121.27429 11262 ft 194 kts 195°
2026-05-09 00:03 44.07774 -121.27753 11735 ft 197 kts 196°
2026-05-09 00:04 44.06415 -121.28083 12212 ft 200 kts 196°
2026-05-09 00:04 44.05037 -121.28424 12685 ft 203 kts 196°
2026-05-09 00:04 44.03639 -121.28756 13195 ft 204 kts 196°
2026-05-09 00:04 44.02226 -121.29092 13653 ft 207 kts 197°
2026-05-09 00:05 44.00800 -121.29439 14105 ft 209 kts 197°
2026-05-09 00:05 43.99375 -121.29784 14522 ft 211 kts 197°
2026-05-09 00:05 43.97925 -121.30131 14960 ft 212 kts 198°
2026-05-09 00:05 43.96471 -121.30481 15397 ft 212 kts 198°
2026-05-09 00:06 43.95010 -121.30830 15821 ft 213 kts 198°
2026-05-09 00:06 43.93545 -121.31183 16252 ft 214 kts 199°
2026-05-09 00:06 43.92072 -121.31537 16677 ft 215 kts 199°
2026-05-09 00:06 43.90592 -121.31893 17079 ft 217 kts 199°
2026-05-09 00:07 43.89100 -121.32251 17484 ft 218 kts 199°
2026-05-09 00:07 43.87598 -121.32614 17891 ft 220 kts 199°
2026-05-09 00:07 43.86601 -121.32853 18155 ft 220 kts 199°
2026-05-09 00:07 43.85111 -121.33210 18543 ft 221 kts 200°
2026-05-09 00:08 43.83808 -121.33532 18844 ft 221 kts 200°
2026-05-09 00:08 43.82289 -121.33918 19198 ft 222 kts 200°
2026-05-09 00:09 43.80759 -121.34273 19525 ft 223 kts 199°
2026-05-09 00:09 43.79232 -121.34639 19865 ft 223 kts 200°
2026-05-09 00:09 43.77698 -121.35013 20210 ft 224 kts 200°
2026-05-09 00:09 43.76153 -121.35379 20555 ft 225 kts 200°
2026-05-09 00:10 43.74607 -121.35745 20909 ft 226 kts 200°
2026-05-09 00:10 43.73056 -121.36115 21270 ft 226 kts 200°
2026-05-09 00:10 43.71509 -121.36483 21654 ft 224 kts 200°
2026-05-09 00:10 43.69973 -121.36851 22029 ft 224 kts 200°
2026-05-09 00:11 43.68459 -121.37213 22417 ft 223 kts 200°
2026-05-09 00:11 43.66932 -121.37574 22813 ft 222 kts 200°
2026-05-09 00:11 43.65416 -121.37938 23196 ft 221 kts 200°
2026-05-09 00:11 43.63903 -121.38297 23581 ft 220 kts 200°
2026-05-09 00:12 43.63498 -121.38394 23682 ft 220 kts 200°
2026-05-09 00:12 43.63474 -121.38399 23688 ft 220 kts 200°
2026-05-09 00:13 43.61965 -121.38755 24013 ft 220 kts 200°
2026-05-09 00:13 43.60901 -121.39002 24242 ft 219 kts 200°
2026-05-09 00:13 43.60340 -121.39135 24368 ft 218 kts 200°
2026-05-09 00:14 43.58845 -121.39488 24709 ft 217 kts 200°
2026-05-09 00:14 43.57358 -121.39843 25047 ft 217 kts 200°
2026-05-09 00:14 43.55872 -121.40196 25395 ft 216 kts 201°
2026-05-09 00:14 43.54394 -121.40543 25747 ft 215 kts 201°
2026-05-09 00:15 43.52944 -121.40887 26096 ft 214 kts 201°
2026-05-09 00:15 43.51479 -121.41235 26435 ft 213 kts 201°
2026-05-09 00:15 43.50019 -121.41580 26794 ft 212 kts 201°
2026-05-09 00:15 43.48567 -121.41927 27154 ft 211 kts 202°
2026-05-09 00:16 43.47118 -121.42270 27491 ft 211 kts 201°
2026-05-09 00:16 43.45672 -121.42611 27840 ft 210 kts 202°
2026-05-09 00:16 43.44234 -121.42952 28203 ft 209 kts 202°
2026-05-09 00:16 43.42799 -121.43288 28564 ft 209 kts 202°
2026-05-09 00:17 43.41370 -121.43624 28929 ft 208 kts 202°
2026-05-09 00:17 43.39949 -121.43963 29278 ft 207 kts 203°
2026-05-09 00:17 43.38535 -121.44303 29623 ft 206 kts 204°
2026-05-09 00:17 43.37121 -121.44641 29968 ft 206 kts 202°
2026-05-09 00:18 43.35708 -121.44959 30310 ft 205 kts 203°
2026-05-09 00:18 43.34303 -121.45290 30587 ft 204 kts 204°
2026-05-09 00:18 43.32899 -121.45621 30872 ft 204 kts 204°
2026-05-09 00:18 43.31502 -121.45944 31109 ft 205 kts 204°
2026-05-09 00:19 43.30056 -121.46271 31120 ft 215 kts 204°
2026-05-09 00:19 43.28547 -121.46662 31128 ft 226 kts 203°
2026-05-09 00:19 43.26984 -121.47029 31130 ft 235 kts 202°
2026-05-09 00:19 43.25343 -121.47405 31131 ft 243 kts 202°
2026-05-09 00:20 43.23650 -121.47800 31126 ft 249 kts 201°
2026-05-09 00:20 43.21917 -121.48209 31129 ft 256 kts 201°
2026-05-09 00:20 43.20139 -121.48624 31129 ft 262 kts 201°
2026-05-09 00:20 43.18321 -121.49036 31126 ft 268 kts 201°
2026-05-09 00:21 43.16462 -121.49483 31130 ft 274 kts 201°
2026-05-09 00:21 43.14566 -121.49930 31130 ft 279 kts 200°
2026-05-09 00:21 43.12637 -121.50377 31128 ft 283 kts 200°
2026-05-09 00:21 43.10679 -121.50832 31126 ft 287 kts 200°
2026-05-09 00:22 43.08695 -121.51293 31129 ft 290 kts 200°
2026-05-09 00:22 43.06692 -121.51759 31126 ft 293 kts 200°
2026-05-09 00:22 43.04675 -121.52232 31124 ft 295 kts 200°
2026-05-09 00:22 43.02640 -121.52704 31117 ft 297 kts 200°
2026-05-09 00:23 43.00604 -121.53175 31111 ft 296 kts 200°
2026-05-09 00:23 42.99489 -121.53434 31110 ft 295 kts 200°
2026-05-09 00:23 42.98994 -121.53549 31111 ft 295 kts 200°
2026-05-09 00:23 42.96973 -121.54018 31109 ft 294 kts 200°
2026-05-09 00:24 42.94983 -121.54481 31108 ft 293 kts 200°
2026-05-09 00:24 42.92971 -121.54949 31108 ft 293 kts 200°
2026-05-09 00:24 42.90964 -121.55415 31105 ft 293 kts 200°
2026-05-09 00:24 42.88951 -121.55883 31105 ft 294 kts 200°
2026-05-09 00:25 42.86932 -121.56352 31106 ft 295 kts 200°
2026-05-09 00:25 42.84907 -121.56821 31105 ft 295 kts 200°
2026-05-09 00:25 42.82879 -121.57287 31105 ft 296 kts 200°
2026-05-09 00:25 42.80844 -121.57758 31106 ft 296 kts 200°
2026-05-09 00:26 42.78813 -121.58229 31107 ft 296 kts 200°
2026-05-09 00:26 42.76794 -121.58724 31113 ft 293 kts 202°
2026-05-09 00:26 42.74819 -121.59262 31096 ft 293 kts 202°
2026-05-09 00:26 42.72803 -121.59772 31106 ft 296 kts 200°
2026-05-09 00:27 42.70749 -121.60145 31108 ft 299 kts 198°
2026-05-09 00:27 42.68684 -121.60495 31111 ft 299 kts 199°
2026-05-09 00:27 42.66625 -121.60897 31109 ft 299 kts 199°
2026-05-09 00:27 42.64571 -121.61314 31110 ft 298 kts 199°
2026-05-09 00:28 42.62521 -121.61708 31108 ft 297 kts 199°
2026-05-09 00:28 42.60469 -121.62103 31107 ft 297 kts 199°
2026-05-09 00:28 42.58425 -121.62501 31106 ft 297 kts 199°
2026-05-09 00:28 42.56383 -121.62894 31106 ft 296 kts 199°
2026-05-09 00:29 42.54343 -121.63287 31105 ft 296 kts 199°
2026-05-09 00:29 42.52305 -121.63680 31101 ft 296 kts 199°
2026-05-09 00:29 42.50283 -121.64069 31104 ft 298 kts 199°
2026-05-09 00:29 42.48229 -121.64455 31105 ft 297 kts 199°
2026-05-09 00:30 42.46184 -121.64856 31101 ft 296 kts 200°
2026-05-09 00:30 42.44151 -121.65250 31102 ft 295 kts 200°
2026-05-09 00:30 42.42113 -121.65639 31101 ft 296 kts 199°
2026-05-09 00:30 42.40077 -121.66024 31105 ft 295 kts 200°
2026-05-09 00:31 42.38038 -121.66420 31110 ft 297 kts 200°
2026-05-09 00:31 42.35986 -121.66817 31109 ft 298 kts 199°
2026-05-09 00:31 42.33927 -121.67209 31102 ft 299 kts 199°
2026-05-09 00:31 42.31867 -121.67601 31103 ft 299 kts 200°
2026-05-09 00:32 42.29831 -121.67992 31103 ft 298 kts 200°
2026-05-09 00:32 42.27777 -121.68386 31105 ft 297 kts 199°
2026-05-09 00:32 42.25702 -121.68784 31103 ft 297 kts 199°
2026-05-09 00:32 42.23657 -121.69172 31100 ft 295 kts 199°
2026-05-09 00:33 42.21630 -121.69565 31105 ft 295 kts 200°
2026-05-09 00:33 42.19612 -121.69945 31103 ft 298 kts 200°
2026-05-09 00:33 42.17552 -121.70338 31154 ft 300 kts 200°
2026-05-09 00:33 42.15486 -121.70727 31170 ft 300 kts 200°
2026-05-09 00:34 42.13420 -121.71123 31170 ft 300 kts 200°
2026-05-09 00:34 42.11357 -121.71513 31164 ft 299 kts 200°
2026-05-09 00:34 42.09293 -121.71905 31170 ft 299 kts 200°
2026-05-09 00:34 42.07232 -121.72298 31169 ft 299 kts 200°
2026-05-09 00:35 42.05173 -121.72686 31166 ft 299 kts 200°
2026-05-09 00:35 42.03112 -121.73077 31160 ft 299 kts 200°
2026-05-09 00:35 42.01059 -121.73469 31153 ft 298 kts 200°
2026-05-09 00:35 41.99000 -121.73859 31149 ft 298 kts 200°
2026-05-09 00:36 41.96943 -121.74248 31147 ft 298 kts 200°
2026-05-09 00:36 41.94886 -121.74637 31142 ft 298 kts 200°
2026-05-09 00:36 41.92832 -121.75026 31123 ft 298 kts 200°
2026-05-09 00:36 41.90780 -121.75412 31128 ft 297 kts 200°
2026-05-09 00:37 41.88762 -121.75796 31125 ft 297 kts 200°
2026-05-09 00:37 41.86713 -121.76182 31121 ft 297 kts 200°
2026-05-09 00:37 41.84666 -121.76567 31110 ft 297 kts 201°
2026-05-09 00:37 41.82615 -121.76953 31104 ft 297 kts 201°
2026-05-09 00:38 41.80563 -121.77340 31100 ft 297 kts 200°
2026-05-09 00:38 41.78514 -121.77729 31101 ft 298 kts 200°
2026-05-09 00:38 41.76460 -121.78112 31107 ft 299 kts 200°
2026-05-09 00:38 41.74395 -121.78497 31101 ft 300 kts 200°
2026-05-09 00:39 41.72329 -121.78888 31103 ft 301 kts 200°
2026-05-09 00:39 41.68185 -121.79658 31092 ft 301 kts 200°
2026-05-09 00:39 41.66118 -121.80018 31116 ft 299 kts 201°
2026-05-09 00:40 41.64062 -121.80430 31118 ft 299 kts 201°
2026-05-09 00:40 41.59921 -121.81219 31120 ft 302 kts 200°
2026-05-09 00:41 41.55802 -121.81979 31111 ft 298 kts 201°
2026-05-09 00:41 41.53754 -121.82364 31108 ft 296 kts 201°
2026-05-09 00:41 41.51711 -121.82749 31107 ft 297 kts 201°
2026-05-09 00:41 41.49654 -121.83136 31094 ft 300 kts 200°
2026-05-09 00:42 41.45496 -121.83906 31095 ft 302 kts 200°
2026-05-09 00:42 41.41322 -121.84679 31089 ft 301 kts 200°
2026-05-09 00:43 41.37203 -121.85451 31091 ft 300 kts 200°
2026-05-09 00:43 41.35134 -121.85830 31084 ft 300 kts 201°
2026-05-09 00:43 41.33079 -121.86238 31080 ft 299 kts 201°
2026-05-09 00:44 41.28930 -121.86973 31083 ft 300 kts 200°
2026-05-09 00:44 41.26865 -121.87346 31082 ft 298 kts 201°
2026-05-09 00:44 41.24808 -121.87745 31064 ft 299 kts 201°
2026-05-09 00:45 41.22744 -121.88133 31068 ft 300 kts 201°
2026-05-09 00:45 41.20673 -121.88510 31069 ft 301 kts 201°
2026-05-09 00:45 41.16521 -121.89285 31055 ft 302 kts 201°
2026-05-09 00:46 41.12384 -121.90017 31068 ft 299 kts 200°
2026-05-09 00:46 41.10338 -121.90414 31064 ft 296 kts 201°
2026-05-09 00:46 41.08284 -121.90787 31049 ft 299 kts 201°
2026-05-09 00:47 41.04126 -121.91562 31050 ft 303 kts 201°
2026-05-09 00:47 40.99966 -121.92320 31051 ft 299 kts 201°
2026-05-09 00:48 40.97907 -121.92700 31042 ft 299 kts 201°
2026-05-09 00:48 40.95871 -121.93073 31042 ft 299 kts 201°
2026-05-09 00:48 40.93816 -121.93457 31045 ft 298 kts 201°
2026-05-09 00:48 40.91760 -121.93829 31039 ft 297 kts 201°
2026-05-09 00:49 40.89713 -121.94217 31034 ft 299 kts 201°
2026-05-09 00:49 40.87642 -121.94571 31042 ft 301 kts 201°
2026-05-09 00:49 40.83475 -121.95340 31040 ft 303 kts 201°
2026-05-09 00:50 40.79327 -121.96102 31018 ft 297 kts 202°
2026-05-09 00:50 40.77277 -121.96506 31030 ft 299 kts 201°
2026-05-09 00:50 40.75204 -121.96864 31029 ft 302 kts 200°
2026-05-09 00:51 40.71033 -121.97598 31027 ft 301 kts 201°
2026-05-09 00:51 40.68959 -121.97985 31024 ft 300 kts 201°
2026-05-09 00:51 40.66920 -121.98358 31016 ft 300 kts 201°
2026-05-09 00:52 40.64855 -121.98730 31015 ft 300 kts 201°
2026-05-09 00:52 40.62786 -121.99105 31010 ft 299 kts 201°
2026-05-09 00:52 40.60719 -121.99483 31009 ft 299 kts 201°
2026-05-09 00:52 40.58654 -121.99860 31017 ft 301 kts 201°
2026-05-09 00:53 40.54493 -122.00611 31004 ft 303 kts 201°
2026-05-09 00:53 40.50312 -122.01369 31011 ft 303 kts 200°
2026-05-09 00:54 40.46177 -122.02112 30999 ft 301 kts 201°
2026-05-09 00:54 40.42037 -122.02874 31008 ft 298 kts 201°
2026-05-09 00:55 40.37875 -122.03609 31012 ft 303 kts 200°
2026-05-09 00:55 40.34386 -122.04237 31015 ft 304 kts 200°
2026-05-09 00:56 40.30223 -122.04986 31012 ft 301 kts 200°
2026-05-09 00:56 40.28152 -122.05359 31008 ft 300 kts 200°
2026-05-09 00:56 40.26086 -122.05722 31002 ft 299 kts 200°
2026-05-09 00:57 40.21927 -122.06483 31005 ft 303 kts 200°
2026-05-09 00:57 40.17726 -122.07228 31007 ft 304 kts 200°
2026-05-09 00:58 40.13556 -122.07977 31001 ft 302 kts 200°
2026-05-09 00:58 40.09429 -122.08712 31000 ft 300 kts 200°
2026-05-09 00:59 40.07359 -122.09082 30996 ft 300 kts 200°
2026-05-09 00:59 40.05296 -122.09450 30996 ft 299 kts 200°
2026-05-09 00:59 40.03233 -122.09818 30996 ft 299 kts 200°
2026-05-09 00:59 40.01172 -122.10185 30995 ft 299 kts 200°
2026-05-09 01:00 39.99107 -122.10554 31000 ft 300 kts 200°
2026-05-09 01:00 39.97036 -122.10925 31000 ft 301 kts 200°
2026-05-09 01:00 39.92873 -122.11665 31001 ft 303 kts 200°
2026-05-09 01:01 39.88687 -122.12409 31003 ft 304 kts 200°
2026-05-09 01:01 39.84534 -122.13146 30997 ft 303 kts 200°
2026-05-09 01:02 39.80361 -122.13883 30997 ft 303 kts 200°
2026-05-09 01:02 39.78267 -122.14256 30842 ft 305 kts 200°
2026-05-09 01:02 39.76173 -122.14625 30478 ft 302 kts 199°
2026-05-09 01:03 39.74104 -122.14983 30084 ft 297 kts 199°
2026-05-09 01:03 39.72075 -122.15343 29657 ft 292 kts 199°
2026-05-09 01:03 39.70057 -122.15706 29259 ft 294 kts 199°
2026-05-09 01:03 39.68015 -122.16071 28871 ft 299 kts 199°
2026-05-09 01:04 39.65943 -122.16434 28476 ft 302 kts 198°
2026-05-09 01:04 39.63860 -122.16797 28081 ft 302 kts 198°
2026-05-09 01:04 39.61780 -122.17163 27681 ft 301 kts 198°
2026-05-09 01:04 39.59711 -122.17528 27284 ft 299 kts 198°
2026-05-09 01:05 39.57647 -122.17892 26885 ft 299 kts 197°
2026-05-09 01:05 39.55604 -122.18254 26489 ft 301 kts 197°
2026-05-09 01:05 39.51433 -122.18986 25689 ft 304 kts 196°
2026-05-09 01:06 39.49335 -122.19355 25290 ft 305 kts 196°
2026-05-09 01:06 39.47233 -122.19723 24874 ft 305 kts 195°
2026-05-09 01:06 39.45125 -122.20092 24482 ft 306 kts 195°
2026-05-09 01:06 39.43015 -122.20462 24080 ft 306 kts 195°
2026-05-09 01:07 39.40901 -122.20832 23675 ft 306 kts 194°
2026-05-09 01:07 39.38787 -122.21201 23231 ft 306 kts 194°
2026-05-09 01:07 39.36681 -122.21569 22818 ft 306 kts 194°
2026-05-09 01:07 39.34556 -122.21942 22412 ft 309 kts 193°
2026-05-09 01:08 39.32416 -122.22316 21999 ft 312 kts 193°
2026-05-09 01:08 39.30263 -122.22691 21590 ft 313 kts 193°
2026-05-09 01:08 39.28105 -122.23066 21175 ft 312 kts 193°
2026-05-09 01:08 39.25955 -122.23441 20759 ft 311 kts 193°
2026-05-09 01:09 39.23811 -122.23816 20353 ft 310 kts 192°
2026-05-09 01:09 39.21663 -122.24191 19944 ft 312 kts 192°
2026-05-09 01:09 39.19505 -122.24566 19532 ft 314 kts 192°
2026-05-09 01:09 39.17340 -122.24944 19111 ft 315 kts 192°
2026-05-09 01:10 39.15191 -122.25317 18700 ft 315 kts 191°
2026-05-09 01:10 39.13009 -122.25695 18243 ft 317 kts 191°
2026-05-09 01:10 39.10823 -122.26075 17787 ft 316 kts 191°
2026-05-09 01:10 39.08638 -122.26452 17365 ft 317 kts 191°
2026-05-09 01:11 39.06445 -122.26834 16937 ft 319 kts 191°
2026-05-09 01:11 39.04245 -122.27214 16522 ft 317 kts 191°
2026-05-09 01:11 39.02076 -122.27590 16107 ft 313 kts 191°
2026-05-09 01:11 38.99923 -122.27960 15696 ft 312 kts 191°
2026-05-09 01:12 38.97770 -122.28332 15292 ft 311 kts 190°
2026-05-09 01:12 38.95626 -122.28707 14880 ft 310 kts 191°
2026-05-09 01:12 38.93498 -122.29079 14474 ft 308 kts 190°
2026-05-09 01:12 38.91376 -122.29445 14073 ft 307 kts 190°
2026-05-09 01:13 38.89264 -122.29802 13658 ft 306 kts 190°
2026-05-09 01:13 38.87158 -122.30146 13238 ft 303 kts 188°
2026-05-09 01:13 38.85086 -122.30377 12841 ft 301 kts 187°
2026-05-09 01:13 38.83007 -122.30620 12446 ft 300 kts 187°
2026-05-09 01:14 38.80928 -122.30864 12058 ft 299 kts 187°
2026-05-09 01:14 38.78856 -122.31103 11662 ft 298 kts 187°
2026-05-09 01:14 38.76802 -122.31345 11271 ft 295 kts 187°
2026-05-09 01:14 38.74753 -122.31581 10881 ft 295 kts 187°
2026-05-09 01:15 38.72712 -122.31811 10498 ft 293 kts 186°
2026-05-09 01:15 38.70685 -122.32046 10111 ft 292 kts 187°
2026-05-09 01:15 38.68664 -122.32280 9709 ft 291 kts 186°
2026-05-09 01:15 38.66659 -122.32511 9316 ft 288 kts 186°
2026-05-09 01:16 38.64662 -122.32739 8932 ft 288 kts 186°
2026-05-09 01:16 38.62673 -122.32970 8551 ft 286 kts 186°
2026-05-09 01:16 38.60699 -122.33194 8177 ft 285 kts 186°
2026-05-09 01:17 38.56852 -122.33636 7446 ft 263 kts 186°
2026-05-09 01:17 38.55098 -122.33839 7113 ft 245 kts 186°
2026-05-09 01:17 38.53425 -122.34036 6798 ft 239 kts 185°
2026-05-09 01:17 38.51782 -122.34223 6491 ft 237 kts 185°
2026-05-09 01:18 38.50137 -122.34409 6168 ft 238 kts 186°
2026-05-09 01:18 38.48487 -122.34590 5844 ft 237 kts 182°
2026-05-09 01:18 38.46840 -122.34493 5511 ft 237 kts 176°
2026-05-09 01:18 38.45192 -122.34359 5177 ft 236 kts 177°
2026-05-09 01:19 38.43564 -122.34262 4851 ft 232 kts 178°
2026-05-09 01:19 38.42004 -122.34166 4519 ft 216 kts 178°
2026-05-09 01:19 38.40572 -122.34074 4217 ft 196 kts 176°
2026-05-09 01:19 38.39316 -122.33633 3961 ft 182 kts 154°
2026-05-09 01:20 38.38251 -122.32851 3712 ft 172 kts 151°
2026-05-09 01:20 38.37228 -122.32132 3489 ft 161 kts 152°
2026-05-09 01:20 38.36298 -122.31478 3261 ft 149 kts 152°
2026-05-09 01:20 38.35420 -122.30855 3051 ft 140 kts 153°
2026-05-09 01:21 38.34586 -122.30260 2905 ft 136 kts 154°
2026-05-09 01:21 38.33749 -122.29670 2743 ft 138 kts 153°
2026-05-09 01:21 38.32919 -122.29078 2530 ft 134 kts 153°
2026-05-09 01:21 38.32116 -122.28504 2339 ft 133 kts 154°
2026-05-09 01:22 38.31297 -122.27924 2131 ft 134 kts 156°
2026-05-09 01:22 38.30487 -122.27386 1931 ft 129 kts 165°
2026-05-09 01:22 38.29630 -122.27321 1733 ft 121 kts 189°
2026-05-09 01:22 38.28781 -122.27351 1540 ft 121 kts 187°
2026-05-09 01:23 38.27944 -122.27355 1361 ft 120 kts 183°
2026-05-09 01:23 38.27102 -122.27367 1161 ft 121 kts 186°
2026-05-09 01:23 38.26273 -122.27367 986 ft 116 kts 185°
2026-05-09 01:23 38.25498 -122.27263 846 ft 113 kts 176°
2026-05-09 01:24 38.24744 -122.27150 656 ft 105 kts 178°
2026-05-09 01:24 38.24036 -122.27154 472 ft 99 kts 182°
2026-05-09 01:24 38.23394 -122.27282 353 ft 92 kts 200°
2026-05-09 01:24 38.22808 -122.27580 185 ft 88 kts 199°
2026-05-09 01:25 38.22240 -122.27837 54 ft 86 kts 200°
2026-05-09 01:25 38.21718 -122.28086 22 ft 72 kts 200°
2026-05-09 01:25 38.21296 -122.28286 15 ft 56 kts 201°
2026-05-09 01:25 38.21022 -122.28421 12 ft 24 kts 198°
2026-05-09 01:26 38.20970 -122.28394 11 ft 8 kts 79°
2026-05-09 01:26 38.20979 -122.28336 12 ft 5 kts 75°
2026-05-09 01:26 38.20991 -122.28275 14 ft 10 kts 77°
2026-05-09 01:26 38.21011 -122.28170 16 ft 15 kts 78°
2026-05-09 01:27 38.21039 -122.28014 17 ft 21 kts 77°
2026-05-09 01:27 38.21075 -122.27824 18 ft 23 kts 76°
2026-05-09 01:27 38.21111 -122.27625 19 ft 24 kts 77°
2026-05-09 01:27 38.21150 -122.27420 21 ft 24 kts 76°
2026-05-09 01:28 38.21182 -122.27252 22 ft 11 kts 67°
2026-05-09 01:28 38.21242 -122.27258 22 ft 9 kts 348°
2026-05-09 01:28 38.21286 -122.27231 22 ft 8 kts 349°
2026-05-09 01:28 38.21345 -122.27266 21 ft 11 kts 333°
2026-05-09 01:29 38.21416 -122.27311 20 ft 11 kts 332°
2026-05-09 01:29 38.21484 -122.27357 18 ft 11 kts 332°
2026-05-09 01:29 38.21552 -122.27387 17 ft 10 kts 340°
2026-05-09 01:29 38.21616 -122.27417 15 ft 10 kts 347°
2026-05-09 01:30 38.21680 -122.27423 14 ft 9 kts
2026-05-09 01:30 38.21720 -122.27401 14 ft 4 kts 54°
2026-05-09 01:30 38.21724 -122.27392 14 ft 0 kts 72°
2026-05-09 01:30 38.21727 -122.27383 14 ft 0 kts 69°